User: anonymous   Login
Location: Caltech
(34.1382°N, 118.1253°W)
Time: 15:15:15
(UTC-08:00)
Language:

Cosmos 1980 Rocket - Orbit

View from above orbital plane
View from above orbital plane
View from above satellite
View from above satellite

Ground track
Ground track

The orbit data is extracted from the following two-line orbital elements,

1 19650U 88102B   17023.94379278 -.00000246 +00000-0 -10100-3 0  9991
2 19650 070.9996 318.3994 0012710 034.7601 325.4350 14.15749161455300
Epoch (UTC): 23 January 2017 22:39:03
Eccentricity: 0.0012710
inclination: 70.9996°
perigee height: 830 km
apogee height: 849 km
right ascension of ascending node: 318.3994°
argument of perigee: 34.7601°
revolutions per day: 14.15749161
mean anomaly at epoch: 325.4350°
orbit number at epoch: 45530

The dashed part of the orbit path shows where the satellite is in the earth's shadow,  

DLR